This is the latest recevied weather packets stored in our database for station/object KF0WJA. If no packets are shown the sender has not sent any weather packets the latest 10 day(s).
| Time | Temp. | Humidity | Pressure | Rain* | Wind** | Luminosity | Snow |
|---|---|---|---|---|---|---|---|
| 1788542103 | 34.44° C | 52% | 1016.1 hPa | 0 mm | - | 658 W/m² | - |
| 1788541798 | 34.44° C | 53% | 1016.5 hPa | 0 mm | - | 678 W/m² | - |
| 1788541493 | 33.89° C | 53% | 1016.6 hPa | 0 mm | - | 677 W/m² | - |
| 1788541189 | 33.33° C | 54% | 1016.5 hPa | 0 mm | - | 678 W/m² | - |
| 1788540887 | 33.89° C | 53% | 1016.5 hPa | 0 mm | - | 671 W/m² | - |
| 1788540587 | 33.89° C | 54% | 1016.6 hPa | 0 mm | - | 675 W/m² | - |
| 1788540282 | 33.33° C | 54% | 1016.6 hPa | 0 mm | - | 673 W/m² | - |
| 1788539978 | 33.33° C | 54% | 1016.8 hPa | 0 mm | - | 672 W/m² | - |
| 1788539678 | 33.33° C | 55% | 1016.5 hPa | 0 mm | - | 653 W/m² | - |
| 1788539378 | 32.78° C | 55% | 1016.7 hPa | 0 mm | - | 632 W/m² | - |
| 1788539073 | 32.78° C | 56% | 1016.7 hPa | 0 mm | - | 615 W/m² | - |
| 1788538768 | 32.78° C | 55% | 1016.5 hPa | 0 mm | - | 594 W/m² | - |
| 1788538464 | 32.78° C | 55% | 1016.6 hPa | 0 mm | - | 616 W/m² | - |
| 1788538160 | 32.22° C | 56% | 1016.7 hPa | 0 mm | - | 609 W/m² | - |
| 1788537854 | 32.22° C | 56% | 1016.6 hPa | 0 mm | - | 606 W/m² | - |
| 1788537549 | 32.22° C | 56% | 1016.6 hPa | 0 mm | - | 543 W/m² | - |
| 1788537244 | 32.78° C | 55% | 1016.3 hPa | 0 mm | - | 532 W/m² | - |
| 1788536943 | 32.22° C | 55% | 1016.5 hPa | 0 mm | - | 557 W/m² | - |
| 1788536637 | 32.22° C | 56% | 1016.7 hPa | 0 mm | - | 538 W/m² | - |
| 1788536333 | 31.67° C | 56% | 1016.5 hPa | 0 mm | - | 511 W/m² | - |
| 1788536028 | 31.67° C | 57% | 1016.7 hPa | 0 mm | - | 504 W/m² | - |
| 1788535724 | 31.11° C | 58% | 1016.7 hPa | 0 mm | - | 466 W/m² | - |
| 1788535424 | 31.11° C | 58% | 1016.8 hPa | 0 mm | - | 452 W/m² | - |
| 1788535118 | 30.56° C | 58% | 1016.8 hPa | 0 mm | - | 428 W/m² | - |
| 1788534818 | 30.56° C | 59% | 1016.7 hPa | 0 mm | - | 391 W/m² | - |
* Rain latest hour (hover to see other rain measurements)
** Current wind speed in m/s (hover to see current wind gust speed)